Terminal Aerodrome Forecast
Issued by NWS Des Moines, IA

Home | Current Version | Previous Version | Text Only | Print | Product List | Glossary On
Versions: 1 2 3 4 5 6 7 8 9 10 11 12 13 14 15 16 17 18 19 20 21 22 23 24 25 26 27 28 29 30 31 32 33 34 35
000
FTUS43 KDMX 282331
TAFDSM
TAF
KDSM 282331Z 2900/2924 13008KT P6SM VCTS SCT035 BKN080CB
     FM290300 15008KT P6SM VCSH SCT015 BKN060
     FM290900 17007KT 5SM BR SCT025 BKN150
     FM291500 20010KT P6SM BKN035
     FM291900 20009KT P6SM VCSH BKN040=

USA.gov is the U.S. government's official web portal to all federal, state and local government web resources and services.